Regional Weather Roundup
Issued by NWS

Home | Current Version | Previous Version | Text Only | Print | Product List | Glossary Off
Versions: 1 2 3 4 5 6 7 8 9 10 11 12 13 14 15 16 17 18 19 20 21 22 23 24 25 26 27 28 29 30 31 32 33 34 35 36 37 38 39 40 41 42 43 44 45 46 47 48 49 50

000
ASUS44 KMEG 070310
RWRTN
TENNESSEE HOURLY STATE WEATHER ROUNDUP
NATIONAL WEATHER SERVICE MEMPHIS TN
1000 PM CDT WED MAY 06 2015

TNZ002-004-019-021-049-052-054-088>092-070400-
WEST TENNESSEE

CITY           SKY/WX    TMP DP  RH WIND       PRES   REMARKS
MEMPHIS INTL   CLEAR     74  52  46 SE6       30.05R
NWS MEMPHIS      N/A     66 N/A N/A MISG        N/A
JACKSON        CLEAR     69  51  52 S3        30.07R
DYERSBURG      CLEAR     72  45  37 SE5       30.07S
PARIS          CLEAR     64  54  68 S5        30.09R
LEXINGTON      CLEAR     61  54  77 CALM      30.08S
$$

TNZ008-025-027-028-033-062-065-066-070400-
NORTH MIDDLE TENNESSEE

CITY           SKY/WX    TMP DP  RH WIND       PRES   REMARKS
NASHVILLE      PTCLDY    69  58  67 S5        30.11R
CLARKSVILLE    CLEAR     68  59  73 CALM      30.08S
SMYRNA         CLEAR     66  59  78 CALM      30.11R
COOKEVILLE     CLEAR     63  59  88 CALM      30.12S
CROSSVILLE     CLEAR     63  52  67 SW3       30.17R
$$

TNZ061-075-076-078-094-096-097-070400-
SOUTH MIDDLE TENNESSEE

CITY           SKY/WX    TMP DP  RH WIND       PRES   REMARKS
FAYETTEVILLE     N/A     64  52  63 CALM      30.13S
TULLAHOMA      CLEAR     61  52  72 CALM      30.15R
WINCHESTER     CLEAR     63  54  72 CALM      30.14S
MCMINNVILLE    CLEAR     64  57  77 CALM      30.14R
COLUMBIA       CLEAR     64  57  77 S3        30.10S
SHELBYVILLE    CLEAR     63  57  82 E3        30.13S
$$

TNZ017-018-042-046-047-070400-
NORTHEAST TENNESSEE

CITY           SKY/WX    TMP DP  RH WIND       PRES   REMARKS
TRI CITIES     PTCLDY    61  58  90 CALM      30.17R
$$

TNZ012-013-036-069-073-074-070400-
CENTRAL EAST TENNESSEE

CITY           SKY/WX    TMP DP  RH WIND       PRES   REMARKS
KNOXVILLE      MOCLDY    72  56  57 S3        30.12R
OAK RIDGE      MOCLDY    73  58  59 CALM      30.13R
GATLINBURG     PTCLDY    64  63  94 NE5       30.13R
MORRISTOWN       N/A     72  55  56 E8        30.15R
$$

TNZ083-085-099-070400-
SOUTHEAST TENNESSEE

CITY           SKY/WX    TMP DP  RH WIND       PRES   REMARKS
CHATTANOOGA    PTCLDY    66  59  78 CALM      30.13R
$$

SKY/WX REPORTED AS FAIR MEANS FEW OR NO CLOUDS BELOW
12 THOUSAND FEET.




USA.gov is the U.S. government's official web portal to all federal, state and local government web resources and services.